Wind_Speed
15 14 14 12 11 10 10 9 7 7 6 5 5 4 4 3 4 4 5 5 6 6 7 8 8 9 8 8 7 6 6 5 4 4 3 3 4 4 5 6 8 9 10
15 14 14 13 12 11 10 9 8 7 6 6 5 4 3 3 3 3 4 5 6 6 7 8 8 8 8 8 8 7 6 5 5 4 3 3 3 3 4 5 6 7 9
15 13 14 14 12 12 10 10 8 7 6 6 5 4 3 3 3 3 4 4 5 6 7 8 8 9 9 8 8 7 7 6 5 5 4 3 3 3 3 4 5 6 7
15 14 14 13 13 12 11 10 9 7 6 6 5 3 2 2 2 3 3 4 5 6 6 7 8 9 9 9 9 8 7 7 6 5 4 4 3 3 3 3 4 5 6
15 14 13 14 13 12 11 10 9 8 7 6 5 4 2 2 2 2 3 4 5 6 6 7 8 8 8 9 9 8 8 7 7 6 5 4 4 3 3 2 2 3 5
15 15 14 14 14 13 12 10 9 8 7 7 6 4 3 2 2 2 2 3 5 6 6 7 7 8 8 8 8 8 8 8 7 7 6 5 4 4 3 2 2 2 3
15 15 14 14 14 14 13 11 10 9 8 7 6 5 4 3 3 3 3 3 4 5 5 6 6 7 8 8 8 8 8 8 8 7 6 5 4 4 3 3 2 2 2
16 16 15 14 14 14 14 12 11 10 9 8 7 6 5 4 4 3 3 3 4 4 4 5 6 6 7 7 8 8 8 8 8 8 7 6 5 5 4 4 3 3 4
15 16 16 15 14 14 14 13 12 11 10 9 7 6 5 5 4 4 4 3 4 4 4 5 5 6 6 7 7 8 8 8 7 8 7 6 6 5 5 5 4 4 5
15 16 15 15 14 15 15 14 13 12 10 9 8 7 6 6 5 4 3 3 3 3 4 4 5 5 6 7 7 7 7 7 7 7 7 7 6 7 6 6 6 5 5
15 15 16 15 15 15 15 15 14 12 11 10 9 8 7 7 6 5 4 3 3 4 4 4 5 5 6 6 6 7 7 7 7 7 7 7 7 7 8 7 7 7 7
16 15 15 15 15 15 15 14 14 12 11 10 10 9 8 8 7 6 6 5 5 5 5 5 5 5 6 7 7 7 7 7 7 8 8 9 9 8 9 8 8 8 9
16 16 16 16 16 15 15 15 14 13 12 11 10 10 9 8 8 8 7 7 7 7 6 6 6 6 7 7 8 8 8 8 8 9 10 10 10 10 10 10 10 10 11
16 16 16 16 16 16 16 16 15 14 13 12 12 11 10 10 9 9 9 9 8 8 8 8 7 8 8 8 9 9 10 10 10 11 12 12 12 12 12 12 12 13 13
16 17 17 17 17 16 16 16 15 14 13 13 12 12 11 11 10 10 10 10 9 9 9 9 9 9 10 10 11 11 12 12 13 13 14 14 14 14 14 14 15 15 15
16 17 18 18 17 17 17 17 16 15 14 14 13 12 12 12 11 11 11 11 11 11 10 10 11 11 12 12 13 14 14 15 15 16 16 16 16 16 16 17 17 17 17
16 17 17 17 17 17 17 17 16 15 15 14 14 14 13 12 12 11 11 11 11 11 12 12 13 13 14 15 15 16 17 18 18 18 19 19 19 19 19 19 19 20 20
16 17 16 17 17 17 17 17 17 16 16 15 15 15 14 13 13 13 13 13 13 13 14 14 15 16 16 17 18 19 20 20 21 21 22 22 22 22 22 22 22 23 24
17 17 17 17 17 18 17 17 17 17 17 16 16 16 15 15 14 14 14 14 15 15 15 16 17 18 19 20 21 22 23 23 24 24 24 24 24 24 25 25 26 26 27
16 17 17 18 18 18 18 18 18 18 17 17 17 16 16 16 16 16 16 16 16 17 17 18 19 20 21 23 24 25 26 26 26 26 26 27 27 28 28 28 29 29 30
16 17 18 18 19 19 19 19 18 18 18 18 18 18 18 18 18 18 18 18 18 19 20 21 22 23 24 25 26 27 28 29 29 29 29 29 30 30 31 31 32 33 33
17 18 18 19 19 19 19 19 19 19 20 20 19 19 20 20 20 20 21 21 21 22 23 24 25 26 27 28 29 29 30 30 30 31 31 32 32 33 34 35 35 36 36
19 19 19 19 20 20 20 20 20 20 20 21 21 22 22 22 22 23 23 23 24 25 26 27 28 29 30 31 32 32 32 32 32 33 34 35 35 36 36 37 38 38 39
19 19 20 20 21 21 21 21 22 22 22 23 23 24 24 25 25 25 26 27 28 29 30 30 31 32 33 34 34 34 34 34 35 36 37 37 38 39 39 39 40 41 42
20 20 21 21 21 22 22 23 23 24 24 25 25 26 27 27 28 28 29 30 31 32 33 34 34 35 35 36 36 36 36 36 37 38 39 40 41 42 42 42 43 43 44
21 22 22 22 23 23 24 24 24 25 26 26 27 28 29 30 31 31 32 33 34 35 36 36 37 37 37 37 37 37 38 39 40 41 41 43 43 44 44 45 45 45 46
Wind_Direction
208 208 210 213 213 212 212 210 217 230 242 250 256 267 278 295 313 326 339 348 353 357 0 2 1 1 4 5 2 358 360 0 354 340 318 301 288 277 263 251 243 238 236
206 209 211 211 210 208 210 209 217 227 237 245 250 259 274 291 313 329 346 358 5 7 9 7 6 7 9 10 8 5 5 4 1 352 335 311 300 289 270 254 244 238 236
204 207 206 207 210 211 213 215 217 224 233 241 247 258 274 290 315 335 357 6 13 14 14 14 13 14 15 16 16 16 12 9 6 0 351 340 330 315 283 264 249 239 234
207 207 204 206 209 211 213 215 219 227 235 239 243 248 269 294 326 349 8 14 14 14 16 15 15 16 18 20 22 23 21 16 13 11 5 357 348 339 318 283 258 246 242
205 207 209 210 210 210 212 216 221 228 235 240 242 245 268 291 312 347 6 12 11 10 13 14 14 17 19 21 23 23 22 18 18 18 15 7 0 350 337 318 286 260 250
208 209 212 213 212 213 215 218 221 226 234 236 239 243 255 279 302 331 349 1 8 10 15 15 15 19 20 20 21 22 22 20 22 23 19 14 10 7 359 346 332 302 264
210 211 211 213 212 213 215 219 221 225 230 236 238 239 250 264 284 312 325 338 354 359 9 15 17 19 22 24 23 22 21 23 24 25 22 18 15 11 6 355 342 323 292
211 213 214 215 215 215 216 217 221 226 230 235 237 238 249 257 270 292 303 318 341 350 1 9 13 17 22 23 23 23 23 23 22 21 20 21 19 13 1 352 340 324 309
214 215 215 217 217 216 217 216 220 224 229 234 237 239 247 252 265 285 293 307 328 335 345 357 1 10 16 17 17 18 20 20 20 19 18 16 10 5 360 351 337 322 308
216 216 215 216 218 218 219 218 222 227 231 231 235 238 241 249 261 276 283 311 325 325 327 335 344 353 1 4 5 9 12 13 13 15 14 8 4 357 348 342 336 327 316
216 217 215 215 219 218 218 221 225 229 231 231 232 236 238 246 257 263 273 295 308 309 316 321 328 333 341 349 355 359 0 2 2 0 359 359 354 347 342 336 332 327 320
216 218 216 218 220 219 219 224 227 228 230 233 238 239 240 248 256 259 270 280 292 293 295 303 315 326 334 343 347 347 346 347 348 346 345 345 342 338 336 331 325 323 320
217 219 219 220 219 220 222 226 229 230 232 237 239 239 244 253 258 259 266 274 280 283 285 293 301 311 321 331 337 337 338 337 336 335 334 332 330 326 326 323 318 316 315
217 219 221 221 220 222 224 226 228 230 232 237 236 241 249 254 259 262 268 272 277 279 281 286 292 300 308 314 321 326 328 326 325 326 325 324 323 319 316 315 312 310 309
220 221 223 223 222 223 225 228 229 230 234 236 238 244 250 253 257 262 267 270 273 274 277 281 286 293 299 304 309 313 316 316 315 316 316 315 314 314 311 310 308 305 304
220 221 221 223 223 225 227 229 229 232 236 237 241 247 250 253 257 262 266 270 273 274 275 279 284 288 293 297 301 304 306 308 308 308 307 307 306 305 305 304 302 300 299
219 220 221 222 224 227 229 230 233 237 239 239 243 248 251 254 257 262 267 270 273 276 278 283 285 287 290 293 296 298 301 302 303 302 302 301 300 300 300 299 299 297 296
219 221 222 224 226 228 230 232 236 238 239 241 245 248 250 253 257 261 265 270 274 278 281 284 287 289 291 292 294 296 298 299 300 299 299 297 296 295 295 296 296 295 294
222 222 225 227 229 232 233 235 238 240 242 243 247 248 250 253 258 263 267 272 277 280 283 286 288 290 292 293 295 296 296 297 297 297 296 295 294 292 292 292 293 294 293
227 227 228 230 233 235 237 240 242 243 244 246 248 249 251 256 261 265 269 273 276 280 284 286 289 292 293 294 295 296 296 295 295 295 294 294 293 292 291 291 291 291 291
232 232 233 235 237 239 241 243 243 245 247 247 249 251 254 258 263 267 270 274 277 280 284 287 290 292 294 295 296 296 296 295 294 294 294 293 293 292 291 291 291 291 291
238 239 238 239 240 241 244 245 247 249 249 250 251 253 256 260 264 268 272 275 278 282 285 288 291 293 295 296 296 295 295 294 294 293 293 293 292 292 292 291 291 291 292
240 240 242 243 243 246 247 249 251 251 252 253 254 257 259 262 266 270 274 276 279 283 285 288 291 293 294 294 295 294 293 293 294 293 293 293 293 293 293 292 292 291 292
241 243 244 245 247 248 249 252 254 254 255 257 258 261 263 266 268 272 275 278 281 283 285 288 290 292 293 293 293 293 292 293 293 294 294 294 294 294 294 294 294 293 293
244 246 246 247 248 249 251 254 255 256 257 258 260 264 266 268 270 273 275 278 281 284 286 288 290 291 292 293 293 292 292 293 294 295 295 295 295 295 295 295 294 293 293
247 248 249 250 251 252 255 257 257 258 259 261 263 265 268 270 272 274 277 279 282 284 287 289 290 291 292 292 292 291 291 292 293 294 294 295 295 295 295 295 294 293 293
Height
5865 5867 5869 5871 5873 5874 5876 5877 5879 5880 5880 5880 5880 5880 5880 5879 5878 5877 5876 5874 5873 5871 5869 5868 5866 5864 5862 5860 5858 5856 5855 5854 5853 5852 5852 5852 5851 5851 5851 5851 5851 5852 5852
5863 5866 5868 5870 5872 5873 5875 5876 5877 5878 5879 5879 5880 5879 5879 5878 5878 5877 5875 5874 5872 5871 5869 5868 5866 5864 5862 5860 5858 5856 5855 5853 5852 5852 5851 5851 5851 5850 5849 5849 5850 5850 5851
5862 5864 5866 5868 5870 5872 5874 5875 5876 5877 5878 5878 5878 5878 5878 5877 5877 5876 5875 5874 5872 5871 5869 5867 5866 5864 5862 5860 5858 5856 5855 5853 5852 5851 5851 5850 5849 5849 5849 5848 5848 5849 5849
5860 5862 5865 5867 5869 5871 5872 5874 5875 5876 5877 5877 5878 5878 5877 5877 5876 5875 5874 5873 5872 5871 5869 5867 5866 5864 5862 5860 5858 5856 5855 5853 5852 5851 5850 5849 5849 5848 5848 5847 5847 5847 5848
5858 5861 5863 5865 5867 5869 5871 5872 5874 5875 5876 5876 5876 5877 5877 5876 5876 5875 5874 5873 5872 5871 5869 5867 5866 5864 5862 5860 5859 5857 5855 5854 5852 5851 5850 5849 5848 5847 5847 5847 5846 5846 5846
5856 5859 5861 5863 5865 5867 5869 5871 5872 5873 5874 5875 5875 5875 5875 5875 5875 5874 5874 5873 5872 5870 5869 5867 5866 5864 5863 5861 5859 5857 5856 5854 5853 5851 5850 5849 5848 5847 5847 5846 5846 5846 5846
5855 5857 5860 5862 5864 5865 5868 5869 5871 5872 5873 5873 5874 5874 5874 5875 5874 5874 5873 5872 5871 5870 5869 5867 5866 5864 5863 5861 5859 5858 5856 5855 5853 5852 5850 5849 5848 5847 5847 5846 5846 5845 5845
5852 5855 5857 5860 5861 5863 5865 5867 5869 5870 5871 5872 5872 5873 5873 5873 5873 5873 5872 5871 5870 5869 5868 5867 5866 5864 5863 5861 5860 5858 5856 5855 5854 5852 5851 5850 5849 5848 5847 5846 5845 5845 5845
5850 5853 5855 5857 5859 5861 5863 5865 5867 5868 5869 5870 5871 5871 5872 5872 5872 5872 5871 5870 5869 5868 5868 5867 5865 5864 5863 5861 5860 5858 5857 5855 5854 5853 5851 5850 5849 5848 5847 5846 5845 5845 5844
5848 5850 5852 5855 5857 5859 5861 5863 5865 5866 5867 5868 5869 5870 5870 5871 5871 5870 5870 5869 5868 5868 5867 5866 5865 5864 5863 5861 5860 5858 5857 5855 5854 5853 5852 5850 5849 5848 5847 5845 5844 5843 5843
5845 5847 5850 5852 5854 5856 5859 5860 5862 5864 5865 5866 5867 5868 5868 5869 5869 5869 5868 5868 5867 5867 5866 5865 5864 5863 5862 5861 5859 5858 5857 5856 5854 5853 5852 5850 5849 5848 5846 5845 5844 5843 5842
5842 5845 5847 5849 5852 5854 5856 5858 5860 5861 5863 5864 5865 5866 5866 5867 5867 5867 5867 5866 5866 5865 5864 5864 5863 5862 5861 5860 5859 5857 5856 5855 5854 5852 5851 5850 5848 5847 5846 5844 5843 5842 5840
5840 5842 5844 5847 5849 5851 5853 5855 5857 5858 5860 5861 5862 5863 5864 5864 5864 5865 5864 5864 5864 5863 5863 5862 5862 5861 5860 5859 5858 5856 5855 5854 5852 5851 5850 5848 5847 5846 5844 5843 5841 5840 5839
5837 5839 5842 5844 5846 5848 5850 5852 5854 5855 5857 5858 5859 5860 5861 5861 5861 5862 5862 5861 5861 5861 5860 5860 5860 5859 5858 5857 5856 5855 5853 5852 5851 5849 5848 5846 5845 5843 5842 5841 5839 5838 5836
5834 5836 5838 5840 5842 5845 5847 5849 5850 5852 5853 5855 5856 5857 5857 5858 5858 5858 5858 5858 5858 5858 5857 5857 5857 5856 5855 5854 5853 5852 5851 5850 5848 5847 5845 5844 5842 5841 5839 5838 5836 5835 5833
5830 5833 5835 5837 5839 5841 5844 5846 5847 5848 5850 5851 5852 5853 5854 5854 5854 5855 5855 5855 5854 5854 5854 5854 5853 5853 5852 5851 5850 5849 5848 5846 5845 5843 5842 5840 5839 5837 5835 5834 5832 5831 5829
5827 5829 5831 5834 5836 5838 5840 5842 5843 5845 5846 5847 5848 5849 5850 5850 5850 5851 5851 5851 5851 5850 5850 5850 5849 5849 5848 5847 5846 5845 5844 5842 5840 5839 5837 5835 5834 5832 5831 5829 5827 5826 5824
5824 5826 5828 5830 5832 5834 5836 5838 5839 5841 5842 5843 5844 5845 5846 5846 5847 5847 5847 5847 5847 5846 5846 5846 5845 5844 5843 5842 5841 5840 5839 5837 5835 5833 5831 5830 5828 5826 5824 5823 5821 5820 5818
5821 5823 5825 5827 5829 5831 5832 5834 5835 5836 5838 5839 5840 5841 5841 5842 5842 5843 5843 5842 5842 5842 5841 5841 5840 5839 5838 5836 5835 5834 5832 5830 5829 5827 5825 5823 5821 5819 5817 5816 5814 5812 5811
5817 5819 5821 5823 5825 5827 5828 5829 5831 5832 5833 5834 5835 5836 5837 5837 5838 5838 5838 5838 5837 5837 5836 5836 5834 5833 5832 5830 5829 5827 5825 5823 5821 5819 5817 5815 5813 5811 5809 5807 5805 5804 5802
5814 5815 5817 5819 5821 5822 5824 5825 5826 5827 5828 5829 5830 5831 5832 5832 5832 5832 5832 5832 5832 5831 5831 5830 5828 5827 5825 5823 5821 5819 5817 5814 5812 5810 5808 5806 5804 5802 5800 5798 5796 5794 5792
5810 5811 5813 5814 5816 5818 5819 5820 5821 5822 5823 5824 5825 5825 5826 5826 5827 5827 5827 5826 5826 5825 5824 5823 5821 5819 5818 5816 5813 5811 5809 5806 5804 5802 5799 5797 5795 5793 5791 5788 5786 5783 5781
5805 5806 5808 5809 5811 5812 5813 5815 5816 5816 5817 5818 5819 5819 5820 5820 5820 5820 5820 5819 5819 5818 5817 5815 5813 5811 5809 5807 5805 5802 5800 5797 5795 5792 5790 5788 5785 5782 5780 5778 5774 5772 5769
5800 5801 5803 5804 5805 5806 5807 5808 5809 5810 5811 5812 5812 5813 5813 5813 5813 5813 5812 5812 5811 5810 5808 5807 5805 5803 5800 5798 5795 5792 5790 5787 5785 5782 5780 5777 5774 5771 5768 5765 5762 5759 5756
5794 5796 5797 5798 5799 5800 5801 5802 5802 5803 5804 5805 5805 5805 5806 5806 5805 5805 5804 5803 5802 5801 5799 5797 5795 5793 5791 5788 5785 5782 5780 5777 5774 5771 5768 5765 5762 5758 5755 5752 5748 5745 5742
5788 5789 5790 5791 5792 5793 5794 5795 5796 5796 5797 5797 5797 5797 5797 5797 5796 5796 5795 5794 5792 5791 5789 5787 5785 5782 5780 5777 5774 5771 5768 5765 5762 5759 5756 5753 5749 5745 5742 5738 5735 5731 5728